#datetime,building,power
2022-07-28T00:00:00,75s,1.32
2022-07-28T00:01:00,75s,1.40
2022-07-28T00:02:00,75s,1.40
2022-07-28T00:03:00,75s,1.27
2022-07-28T00:04:00,75s,1.37
2022-07-28T00:05:00,75s,1.37
2022-07-28T00:06:00,75s,1.35
2022-07-28T00:07:00,75s,1.34
2022-07-28T00:08:00,75s,1.23
2022-07-28T00:09:00,75s,1.18
2022-07-28T00:10:00,75s,1.19
2022-07-28T00:11:00,75s,1.18
2022-07-28T00:12:00,75s,1.27
2022-07-28T00:13:00,75s,1.28
2022-07-28T00:14:00,75s,1.23
2022-07-28T00:15:00,75s,1.22
2022-07-28T00:16:00,75s,1.38
2022-07-28T00:17:00,75s,1.42
2022-07-28T00:18:00,75s,1.43
2022-07-28T00:19:00,75s,1.34
2022-07-28T00:20:00,75s,1.24
2022-07-28T00:21:00,75s,1.31
2022-07-28T00:22:00,75s,1.23
2022-07-28T00:23:00,75s,1.26
2022-07-28T00:24:00,75s,1.22
2022-07-28T00:25:00,75s,1.22
2022-07-28T00:26:00,75s,1.30
2022-07-28T00:27:00,75s,1.30
2022-07-28T00:28:00,75s,1.33
2022-07-28T00:29:00,75s,1.33
2022-07-28T00:30:00,75s,1.32
2022-07-28T00:31:00,75s,1.34
2022-07-28T00:32:00,75s,1.30
2022-07-28T00:33:00,75s,1.31
2022-07-28T00:34:00,75s,1.30
2022-07-28T00:35:00,75s,1.29
2022-07-28T00:36:00,75s,1.81
2022-07-28T00:37:00,75s,1.24
2022-07-28T00:38:00,75s,1.24
2022-07-28T00:39:00,75s,1.26
2022-07-28T00:40:00,75s,1.35
2022-07-28T00:41:00,75s,1.42
2022-07-28T00:42:00,75s,1.43
2022-07-28T00:43:00,75s,1.40
2022-07-28T00:44:00,75s,1.22
2022-07-28T00:45:00,75s,1.31
2022-07-28T00:46:00,75s,1.30
2022-07-28T00:47:00,75s,1.31
2022-07-28T00:48:00,75s,1.31
2022-07-28T00:49:00,75s,1.31
2022-07-28T00:50:00,75s,1.30
2022-07-28T00:51:00,75s,1.32
2022-07-28T00:52:00,75s,1.40
2022-07-28T00:53:00,75s,1.40
2022-07-28T00:54:00,75s,1.48
2022-07-28T00:55:00,75s,1.49
2022-07-28T00:56:00,75s,1.34
2022-07-28T00:57:00,75s,1.75
2022-07-28T00:58:00,75s,1.38
2022-07-28T00:59:00,75s,1.38
2022-07-28T01:00:00,75s,1.29
2022-07-28T01:01:00,75s,1.30
2022-07-28T01:02:00,75s,1.30
2022-07-28T01:03:00,75s,1.30
2022-07-28T01:04:00,75s,1.40
2022-07-28T01:05:00,75s,1.47
2022-07-28T01:06:00,75s,1.48
2022-07-28T01:07:00,75s,1.52
2022-07-28T01:08:00,75s,1.26
2022-07-28T01:09:00,75s,1.34
2022-07-28T01:10:00,75s,1.34
2022-07-28T01:11:00,75s,1.27
2022-07-28T01:12:00,75s,1.26
2022-07-28T01:13:00,75s,1.26
2022-07-28T01:14:00,75s,1.25
2022-07-28T01:15:00,75s,1.36
2022-07-28T01:16:00,75s,1.34
2022-07-28T01:17:00,75s,1.42
2022-07-28T01:18:00,75s,1.43
2022-07-28T01:19:00,75s,1.42
2022-07-28T01:20:00,75s,1.32
2022-07-28T01:21:00,75s,1.32
2022-07-28T01:22:00,75s,1.33
2022-07-28T01:23:00,75s,1.24
2022-07-28T01:24:00,75s,1.24
2022-07-28T01:25:00,75s,1.24
2022-07-28T01:26:00,75s,1.19
2022-07-28T01:27:00,75s,1.19
2022-07-28T01:28:00,75s,1.86
2022-07-28T01:29:00,75s,1.37
2022-07-28T01:30:00,75s,1.36
2022-07-28T01:31:00,75s,1.29
2022-07-28T01:32:00,75s,1.27
2022-07-28T01:33:00,75s,1.36
2022-07-28T01:34:00,75s,1.36
2022-07-28T01:35:00,75s,1.28
2022-07-28T01:36:00,75s,1.93
2022-07-28T01:37:00,75s,1.95
2022-07-28T01:38:00,75s,1.30
2022-07-28T01:39:00,75s,1.37
2022-07-28T01:40:00,75s,1.51
2022-07-28T01:41:00,75s,1.80
2022-07-28T01:42:00,75s,1.40
2022-07-28T01:43:00,75s,1.49
2022-07-28T01:44:00,75s,1.38
2022-07-28T01:45:00,75s,1.38
2022-07-28T01:46:00,75s,1.31
2022-07-28T01:47:00,75s,1.31
2022-07-28T01:48:00,75s,1.30
2022-07-28T01:49:00,75s,1.30
2022-07-28T01:50:00,75s,1.42
2022-07-28T01:51:00,75s,1.38
2022-07-28T01:52:00,75s,1.48
2022-07-28T01:53:00,75s,1.40
2022-07-28T01:54:00,75s,1.31
2022-07-28T01:55:00,75s,1.44
2022-07-28T01:56:00,75s,1.29
2022-07-28T01:57:00,75s,1.21
2022-07-28T01:58:00,75s,1.16
2022-07-28T01:59:00,75s,1.15
2022-07-28T02:00:00,75s,1.16
2022-07-28T02:01:00,75s,1.24
2022-07-28T02:02:00,75s,1.24
2022-07-28T02:03:00,75s,1.24
2022-07-28T02:04:00,75s,1.26
2022-07-28T02:05:00,75s,1.25
2022-07-28T02:06:00,75s,1.26
2022-07-28T02:07:00,75s,1.25
2022-07-28T02:08:00,75s,1.16
2022-07-28T02:09:00,75s,1.24
2022-07-28T02:10:00,75s,1.42
2022-07-28T02:11:00,75s,1.20
2022-07-28T02:12:00,75s,1.16
2022-07-28T02:13:00,75s,1.15
2022-07-28T02:14:00,75s,1.12
2022-07-28T02:15:00,75s,1.11
2022-07-28T02:16:00,75s,1.22
2022-07-28T02:17:00,75s,1.30
2022-07-28T02:18:00,75s,1.29
2022-07-28T02:19:00,75s,1.30
2022-07-28T02:20:00,75s,1.20
2022-07-28T02:21:00,75s,1.19
2022-07-28T02:22:00,75s,1.19
2022-07-28T02:23:00,75s,1.82
2022-07-28T02:24:00,75s,1.32
2022-07-28T02:25:00,75s,1.31
2022-07-28T02:26:00,75s,1.38
2022-07-28T02:27:00,75s,1.40
2022-07-28T02:28:00,75s,1.49
2022-07-28T02:29:00,75s,1.42
2022-07-28T02:30:00,75s,1.40
2022-07-28T02:31:00,75s,1.48
2022-07-28T02:32:00,75s,1.38
2022-07-28T02:33:00,75s,1.35
2022-07-28T02:34:00,75s,1.31
2022-07-28T02:35:00,75s,1.31
2022-07-28T02:36:00,75s,1.31
2022-07-28T02:37:00,75s,1.59
2022-07-28T02:38:00,75s,1.28
2022-07-28T02:39:00,75s,1.28
2022-07-28T02:40:00,75s,1.39
2022-07-28T02:41:00,75s,1.39
2022-07-28T02:42:00,75s,1.38
2022-07-28T02:43:00,75s,1.42
2022-07-28T02:44:00,75s,1.32
2022-07-28T02:45:00,75s,1.32
2022-07-28T02:46:00,75s,1.24
2022-07-28T02:47:00,75s,1.24
2022-07-28T02:48:00,75s,1.24
2022-07-28T02:49:00,75s,1.24
2022-07-28T02:50:00,75s,1.23
2022-07-28T02:51:00,75s,1.57
2022-07-28T02:52:00,75s,1.35
2022-07-28T02:53:00,75s,1.41
2022-07-28T02:54:00,75s,1.50
2022-07-28T02:55:00,75s,1.42
2022-07-28T02:56:00,75s,1.65
2022-07-28T02:57:00,75s,1.26
2022-07-28T02:58:00,75s,1.27
2022-07-28T02:59:00,75s,1.27
2022-07-28T03:00:00,75s,1.26
2022-07-28T03:01:00,75s,1.27
2022-07-28T03:02:00,75s,1.21
2022-07-28T03:03:00,75s,1.23
2022-07-28T03:04:00,75s,1.34
2022-07-28T03:05:00,75s,1.48
2022-07-28T03:06:00,75s,1.57
2022-07-28T03:07:00,75s,1.82
2022-07-28T03:08:00,75s,1.38
2022-07-28T03:09:00,75s,1.31
2022-07-28T03:10:00,75s,1.32
2022-07-28T03:11:00,75s,1.31
2022-07-28T03:12:00,75s,1.30
2022-07-28T03:13:00,75s,1.30
2022-07-28T03:14:00,75s,1.30
2022-07-28T03:15:00,75s,1.30
2022-07-28T03:16:00,75s,1.48
2022-07-28T03:17:00,75s,1.55
2022-07-28T03:18:00,75s,1.58
2022-07-28T03:19:00,75s,1.47
2022-07-28T03:20:00,75s,1.30
2022-07-28T03:21:00,75s,1.68
2022-07-28T03:22:00,75s,1.30
2022-07-28T03:23:00,75s,1.33
2022-07-28T03:24:00,75s,1.30
2022-07-28T03:25:00,75s,1.23
2022-07-28T03:26:00,75s,1.22
2022-07-28T03:27:00,75s,1.21
2022-07-28T03:28:00,75s,1.48
2022-07-28T03:29:00,75s,1.79
2022-07-28T03:30:00,75s,1.48
2022-07-28T03:31:00,75s,1.38
2022-07-28T03:32:00,75s,1.33
2022-07-28T03:33:00,75s,1.26
2022-07-28T03:34:00,75s,1.26
2022-07-28T03:35:00,75s,1.26
2022-07-28T03:36:00,75s,1.26
2022-07-28T03:37:00,75s,1.27
2022-07-28T03:38:00,75s,1.26
2022-07-28T03:39:00,75s,1.42
2022-07-28T03:40:00,75s,1.52
2022-07-28T03:41:00,75s,1.53
2022-07-28T03:42:00,75s,1.37
2022-07-28T03:43:00,75s,1.32
2022-07-28T03:44:00,75s,1.22
2022-07-28T03:45:00,75s,1.23
2022-07-28T03:46:00,75s,1.68
2022-07-28T03:47:00,75s,1.21
2022-07-28T03:48:00,75s,1.20
2022-07-28T03:49:00,75s,1.16
2022-07-28T03:50:00,75s,1.25
2022-07-28T03:51:00,75s,1.32
2022-07-28T03:52:00,75s,1.52
2022-07-28T03:53:00,75s,1.44
2022-07-28T03:54:00,75s,1.39
2022-07-28T03:55:00,75s,1.37
2022-07-28T03:56:00,75s,1.23
2022-07-28T03:57:00,75s,1.22
2022-07-28T03:58:00,75s,1.23
2022-07-28T03:59:00,75s,1.22
2022-07-28T04:00:00,75s,1.22
2022-07-28T04:01:00,75s,1.17
2022-07-28T04:02:00,75s,1.26
2022-07-28T04:03:00,75s,1.25
2022-07-28T04:04:00,75s,1.35
2022-07-28T04:05:00,75s,1.26
2022-07-28T04:06:00,75s,1.28
2022-07-28T04:07:00,75s,1.27
2022-07-28T04:08:00,75s,1.26
2022-07-28T04:09:00,75s,1.32
2022-07-28T04:10:00,75s,1.31
2022-07-28T04:11:00,75s,1.16
2022-07-28T04:12:00,75s,1.16
2022-07-28T04:13:00,75s,1.58
2022-07-28T04:14:00,75s,1.16
2022-07-28T04:15:00,75s,1.15
2022-07-28T04:16:00,75s,1.28
2022-07-28T04:17:00,75s,1.27
2022-07-28T04:18:00,75s,1.34
2022-07-28T04:19:00,75s,1.75
2022-07-28T04:20:00,75s,1.30
2022-07-28T04:21:00,75s,1.30
2022-07-28T04:22:00,75s,1.30
2022-07-28T04:23:00,75s,1.30
2022-07-28T04:24:00,75s,1.53
2022-07-28T04:25:00,75s,1.79
2022-07-28T04:26:00,75s,11.35
2022-07-28T04:27:00,75s,10.92
2022-07-28T04:28:00,75s,10.98
2022-07-28T04:29:00,75s,10.89
2022-07-28T04:30:00,75s,1.89
2022-07-28T04:31:00,75s,11.22
2022-07-28T04:32:00,75s,10.79
2022-07-28T04:33:00,75s,1.80
2022-07-28T04:34:00,75s,1.88
2022-07-28T04:35:00,75s,1.90
2022-07-28T04:36:00,75s,1.90
2022-07-28T04:37:00,75s,1.76
2022-07-28T04:38:00,75s,1.73
2022-07-28T04:39:00,75s,2.04
2022-07-28T04:40:00,75s,1.66
2022-07-28T04:41:00,75s,1.77
2022-07-28T04:42:00,75s,1.76
2022-07-28T04:43:00,75s,1.75
2022-07-28T04:44:00,75s,1.75
2022-07-28T04:45:00,75s,1.73
2022-07-28T04:46:00,75s,1.74
2022-07-28T04:47:00,75s,1.74
2022-07-28T04:48:00,75s,1.75
2022-07-28T04:49:00,75s,1.74
2022-07-28T04:50:00,75s,1.65
2022-07-28T04:51:00,75s,1.65
2022-07-28T04:52:00,75s,1.93
2022-07-28T04:53:00,75s,1.75
2022-07-28T04:54:00,75s,1.75
2022-07-28T04:55:00,75s,1.75
2022-07-28T04:56:00,75s,1.82
2022-07-28T04:57:00,75s,1.65
2022-07-28T04:58:00,75s,1.66
2022-07-28T04:59:00,75s,1.58
2022-07-28T05:00:00,75s,1.65
2022-07-28T05:01:00,75s,1.65
2022-07-28T05:02:00,75s,1.65
2022-07-28T05:03:00,75s,1.57
2022-07-28T05:04:00,75s,1.57
2022-07-28T05:05:00,75s,1.35
2022-07-28T05:06:00,75s,1.44
2022-07-28T05:07:00,75s,1.48
2022-07-28T05:08:00,75s,1.48
2022-07-28T05:09:00,75s,1.38
2022-07-28T05:10:00,75s,1.30
2022-07-28T05:11:00,75s,1.31
2022-07-28T05:12:00,75s,1.39
2022-07-28T05:13:00,75s,1.38
2022-07-28T05:14:00,75s,1.38
2022-07-28T05:15:00,75s,1.30
2022-07-28T05:16:00,75s,1.28
2022-07-28T05:17:00,75s,1.37
2022-07-28T05:18:00,75s,1.45
2022-07-28T05:19:00,75s,1.45
2022-07-28T05:20:00,75s,1.44
2022-07-28T05:21:00,75s,1.29
2022-07-28T05:22:00,75s,1.36
2022-07-28T05:23:00,75s,1.35
2022-07-28T05:24:00,75s,1.41
2022-07-28T05:25:00,75s,1.39
2022-07-28T05:26:00,75s,1.39
2022-07-28T05:27:00,75s,1.31
2022-07-28T05:28:00,75s,1.31
2022-07-28T05:29:00,75s,1.49
2022-07-28T05:30:00,75s,1.44
2022-07-28T05:31:00,75s,1.45
2022-07-28T05:32:00,75s,1.35
2022-07-28T05:33:00,75s,1.26
2022-07-28T05:34:00,75s,1.26
2022-07-28T05:35:00,75s,1.34
2022-07-28T05:36:00,75s,1.33
2022-07-28T05:37:00,75s,1.34
2022-07-28T05:38:00,75s,1.26
2022-07-28T05:39:00,75s,1.69
2022-07-28T05:40:00,75s,1.21
2022-07-28T05:41:00,75s,1.30
2022-07-28T05:42:00,75s,1.22
2022-07-28T05:43:00,75s,1.84
2022-07-28T05:44:00,75s,1.30
2022-07-28T05:45:00,75s,1.13
2022-07-28T05:46:00,75s,1.13
2022-07-28T05:47:00,75s,1.21
2022-07-28T05:48:00,75s,1.21
2022-07-28T05:49:00,75s,1.19
2022-07-28T05:50:00,75s,1.14
2022-07-28T05:51:00,75s,1.12
2022-07-28T05:52:00,75s,1.13
2022-07-28T05:53:00,75s,1.24
2022-07-28T05:54:00,75s,1.28
2022-07-28T05:55:00,75s,1.45
2022-07-28T05:56:00,75s,1.34
2022-07-28T05:57:00,75s,1.24
2022-07-28T05:58:00,75s,1.31
2022-07-28T05:59:00,75s,1.40
2022-07-28T06:00:00,75s,1.38
2022-07-28T06:01:00,75s,2.82
2022-07-28T06:02:00,75s,2.98
2022-07-28T06:03:00,75s,3.80
2022-07-28T06:04:00,75s,3.27
2022-07-28T06:05:00,75s,3.24
2022-07-28T06:06:00,75s,13.72
2022-07-28T06:07:00,75s,14.20
2022-07-28T06:08:00,75s,13.55
2022-07-28T06:09:00,75s,13.37
2022-07-28T06:10:00,75s,13.40
2022-07-28T06:11:00,75s,13.44
2022-07-28T06:12:00,75s,13.51
2022-07-28T06:13:00,75s,13.53
2022-07-28T06:14:00,75s,13.72
2022-07-28T06:15:00,75s,13.44
2022-07-28T06:16:00,75s,20.81
2022-07-28T06:17:00,75s,19.31
2022-07-28T06:18:00,75s,19.45
2022-07-28T06:19:00,75s,13.55
2022-07-28T06:20:00,75s,13.68
2022-07-28T06:21:00,75s,13.86
2022-07-28T06:22:00,75s,13.90
2022-07-28T06:23:00,75s,14.02
2022-07-28T06:24:00,75s,14.05
2022-07-28T06:25:00,75s,14.03
2022-07-28T06:26:00,75s,13.96
2022-07-28T06:27:00,75s,13.94
2022-07-28T06:28:00,75s,3.59
2022-07-28T06:29:00,75s,3.69
2022-07-28T06:30:00,75s,3.77
2022-07-28T06:31:00,75s,3.76
2022-07-28T06:32:00,75s,3.68
2022-07-28T06:33:00,75s,3.60
2022-07-28T06:34:00,75s,3.59
2022-07-28T06:35:00,75s,3.67
2022-07-28T06:36:00,75s,14.15
2022-07-28T06:37:00,75s,14.00
2022-07-28T06:38:00,75s,13.91
2022-07-28T06:39:00,75s,13.89
2022-07-28T06:40:00,75s,13.95
2022-07-28T06:41:00,75s,14.26
2022-07-28T06:42:00,75s,14.10
2022-07-28T06:43:00,75s,14.10
2022-07-28T06:44:00,75s,14.18
2022-07-28T06:45:00,75s,14.16
2022-07-28T06:46:00,75s,19.80
2022-07-28T06:47:00,75s,19.70
2022-07-28T06:48:00,75s,19.65
2022-07-28T06:49:00,75s,19.60
2022-07-28T06:50:00,75s,13.95
2022-07-28T06:51:00,75s,13.96
2022-07-28T06:52:00,75s,14.05
2022-07-28T06:53:00,75s,14.04
2022-07-28T06:54:00,75s,14.13
2022-07-28T06:55:00,75s,14.11
2022-07-28T06:56:00,75s,14.10
2022-07-28T06:57:00,75s,14.61
2022-07-28T06:58:00,75s,14.22
2022-07-28T06:59:00,75s,14.18
2022-07-28T07:00:00,75s,14.02
2022-07-28T07:01:00,75s,14.04
2022-07-28T07:02:00,75s,14.00
2022-07-28T07:03:00,75s,3.62
2022-07-28T07:04:00,75s,3.64
2022-07-28T07:05:00,75s,3.63
2022-07-28T07:06:00,75s,4.05
2022-07-28T07:07:00,75s,4.04
2022-07-28T07:08:00,75s,4.11
2022-07-28T07:09:00,75s,4.21
2022-07-28T07:10:00,75s,4.10
2022-07-28T07:11:00,75s,4.04
2022-07-28T07:12:00,75s,3.82
2022-07-28T07:13:00,75s,14.75
2022-07-28T07:14:00,75s,14.23
2022-07-28T07:15:00,75s,14.22
2022-07-28T07:16:00,75s,14.27
2022-07-28T07:17:00,75s,14.87
2022-07-28T07:18:00,75s,14.35
2022-07-28T07:19:00,75s,14.34
2022-07-28T07:20:00,75s,14.43
2022-07-28T07:21:00,75s,14.52
2022-07-28T07:22:00,75s,14.43
2022-07-28T07:23:00,75s,25.45
2022-07-28T07:24:00,75s,26.34
2022-07-28T07:25:00,75s,25.75
2022-07-28T07:26:00,75s,25.41
2022-07-28T07:27:00,75s,25.33
2022-07-28T07:28:00,75s,25.11
2022-07-28T07:29:00,75s,24.91
2022-07-28T07:30:00,75s,20.38
2022-07-28T07:31:00,75s,20.03
2022-07-28T07:32:00,75s,20.07
2022-07-28T07:33:00,75s,20.20
2022-07-28T07:34:00,75s,20.12
2022-07-28T07:35:00,75s,20.00
2022-07-28T07:36:00,75s,20.06
2022-07-28T07:37:00,75s,20.25
2022-07-28T07:38:00,75s,20.46
2022-07-28T07:39:00,75s,20.26
2022-07-28T07:40:00,75s,20.23
2022-07-28T07:41:00,75s,20.28
2022-07-28T07:42:00,75s,20.33
2022-07-28T07:43:00,75s,20.75
2022-07-28T07:44:00,75s,20.63
2022-07-28T07:45:00,75s,20.49
2022-07-28T07:46:00,75s,20.29
2022-07-28T07:47:00,75s,20.18
2022-07-28T07:48:00,75s,20.17
2022-07-28T07:49:00,75s,20.17
2022-07-28T07:50:00,75s,19.98
2022-07-28T07:51:00,75s,19.94
2022-07-28T07:52:00,75s,19.88
2022-07-28T07:53:00,75s,19.87
2022-07-28T07:54:00,75s,19.94
2022-07-28T07:55:00,75s,20.23
2022-07-28T07:56:00,75s,19.99
2022-07-28T07:57:00,75s,19.99
2022-07-28T07:58:00,75s,19.79
2022-07-28T07:59:00,75s,19.76
2022-07-28T08:00:00,75s,19.70
2022-07-28T08:01:00,75s,19.81
2022-07-28T08:02:00,75s,20.39
2022-07-28T08:03:00,75s,25.90
2022-07-28T08:04:00,75s,22.22
2022-07-28T08:05:00,75s,24.09
2022-07-28T08:06:00,75s,26.07
2022-07-28T08:07:00,75s,26.64
2022-07-28T08:08:00,75s,26.50
2022-07-28T08:09:00,75s,26.37
2022-07-28T08:10:00,75s,26.48
2022-07-28T08:11:00,75s,26.22
2022-07-28T08:12:00,75s,26.11
2022-07-28T08:13:00,75s,26.07
2022-07-28T08:14:00,75s,25.98
2022-07-28T08:15:00,75s,25.86
2022-07-28T08:16:00,75s,26.35
2022-07-28T08:17:00,75s,25.92
2022-07-28T08:18:00,75s,26.27
2022-07-28T08:19:00,75s,26.37
2022-07-28T08:20:00,75s,26.22
2022-07-28T08:21:00,75s,26.13
2022-07-28T08:22:00,75s,26.12
2022-07-28T08:23:00,75s,25.91
2022-07-28T08:24:00,75s,26.04
2022-07-28T08:25:00,75s,26.21
2022-07-28T08:26:00,75s,26.12
2022-07-28T08:27:00,75s,25.71
2022-07-28T08:28:00,75s,25.66
2022-07-28T08:29:00,75s,25.57
2022-07-28T08:30:00,75s,25.41
2022-07-28T08:31:00,75s,25.33
2022-07-28T08:32:00,75s,24.79
2022-07-28T08:33:00,75s,24.02
2022-07-28T08:34:00,75s,23.47
2022-07-28T08:35:00,75s,22.55
2022-07-28T08:36:00,75s,21.42
2022-07-28T08:37:00,75s,20.93
2022-07-28T08:38:00,75s,20.50
2022-07-28T08:39:00,75s,20.51
2022-07-28T08:40:00,75s,20.44
2022-07-28T08:41:00,75s,20.56
2022-07-28T08:42:00,75s,20.43
2022-07-28T08:43:00,75s,20.39
2022-07-28T08:44:00,75s,20.18
2022-07-28T08:45:00,75s,20.19
2022-07-28T08:46:00,75s,20.29
2022-07-28T08:47:00,75s,20.20
2022-07-28T08:48:00,75s,20.39
2022-07-28T08:49:00,75s,20.05
2022-07-28T08:50:00,75s,20.15
2022-07-28T08:51:00,75s,20.03
2022-07-28T08:52:00,75s,20.02
2022-07-28T08:53:00,75s,20.20
2022-07-28T08:54:00,75s,20.21
2022-07-28T08:55:00,75s,20.36
2022-07-28T08:56:00,75s,20.30
2022-07-28T08:57:00,75s,20.25
2022-07-28T08:58:00,75s,20.33
2022-07-28T08:59:00,75s,20.10
2022-07-28T09:00:00,75s,20.16
2022-07-28T09:01:00,75s,20.14
2022-07-28T09:02:00,75s,20.14
2022-07-28T09:03:00,75s,20.21
2022-07-28T09:04:00,75s,21.54
2022-07-28T09:05:00,75s,20.27
2022-07-28T09:06:00,75s,20.34
2022-07-28T09:07:00,75s,26.81
2022-07-28T09:08:00,75s,22.61
2022-07-28T09:09:00,75s,26.79
2022-07-28T09:10:00,75s,26.79
2022-07-28T09:11:00,75s,26.61
2022-07-28T09:12:00,75s,26.66
2022-07-28T09:13:00,75s,26.56
2022-07-28T09:14:00,75s,26.41
2022-07-28T09:15:00,75s,26.40
2022-07-28T09:16:00,75s,26.28
2022-07-28T09:17:00,75s,26.17
2022-07-28T09:18:00,75s,26.21
2022-07-28T09:19:00,75s,26.44
2022-07-28T09:20:00,75s,26.32
2022-07-28T09:21:00,75s,26.53
2022-07-28T09:22:00,75s,26.25
2022-07-28T09:23:00,75s,26.27
2022-07-28T09:24:00,75s,26.66
2022-07-28T09:25:00,75s,26.54
2022-07-28T09:26:00,75s,26.69
2022-07-28T09:27:00,75s,26.97
2022-07-28T09:28:00,75s,27.02
2022-07-28T09:29:00,75s,27.25
2022-07-28T09:30:00,75s,35.61
2022-07-28T09:31:00,75s,35.55
2022-07-28T09:32:00,75s,35.91
2022-07-28T09:33:00,75s,35.32
2022-07-28T09:34:00,75s,34.22
2022-07-28T09:35:00,75s,25.75
2022-07-28T09:36:00,75s,25.15
2022-07-28T09:37:00,75s,24.61
2022-07-28T09:38:00,75s,23.83
2022-07-28T09:39:00,75s,26.91
2022-07-28T09:40:00,75s,22.82
2022-07-28T09:41:00,75s,22.85
2022-07-28T09:42:00,75s,22.03
2022-07-28T09:43:00,75s,21.59
2022-07-28T09:44:00,75s,26.72
2022-07-28T09:45:00,75s,21.49
2022-07-28T09:46:00,75s,21.39
2022-07-28T09:47:00,75s,21.18
2022-07-28T09:48:00,75s,22.23
2022-07-28T09:49:00,75s,21.09
2022-07-28T09:50:00,75s,20.91
2022-07-28T09:51:00,75s,21.23
2022-07-28T09:52:00,75s,21.04
2022-07-28T09:53:00,75s,21.13
2022-07-28T09:54:00,75s,21.06
2022-07-28T09:55:00,75s,21.55
2022-07-28T09:56:00,75s,20.97
2022-07-28T09:57:00,75s,21.53
2022-07-28T09:58:00,75s,20.85
2022-07-28T09:59:00,75s,25.38
2022-07-28T10:00:00,75s,27.20
2022-07-28T10:01:00,75s,27.98
2022-07-28T10:02:00,75s,27.96
2022-07-28T10:03:00,75s,26.45
2022-07-28T10:04:00,75s,28.40
2022-07-28T10:05:00,75s,28.43
2022-07-28T10:06:00,75s,28.38
2022-07-28T10:07:00,75s,28.27
2022-07-28T10:08:00,75s,28.38
2022-07-28T10:09:00,75s,28.57
2022-07-28T10:10:00,75s,29.01
2022-07-28T10:11:00,75s,28.78
2022-07-28T10:12:00,75s,29.14
2022-07-28T10:13:00,75s,29.26
2022-07-28T10:14:00,75s,29.29
2022-07-28T10:15:00,75s,29.28
2022-07-28T10:16:00,75s,29.38
2022-07-28T10:17:00,75s,29.60
2022-07-28T10:18:00,75s,29.92
2022-07-28T10:19:00,75s,30.04
2022-07-28T10:20:00,75s,29.73
2022-07-28T10:21:00,75s,29.64
2022-07-28T10:22:00,75s,29.66
2022-07-28T10:23:00,75s,29.03
2022-07-28T10:24:00,75s,29.09
2022-07-28T10:25:00,75s,28.79
2022-07-28T10:26:00,75s,29.05
2022-07-28T10:27:00,75s,29.09
2022-07-28T10:28:00,75s,29.23
2022-07-28T10:29:00,75s,29.47
2022-07-28T10:30:00,75s,29.02
2022-07-28T10:31:00,75s,29.07
2022-07-28T10:32:00,75s,29.03
2022-07-28T10:33:00,75s,28.91
2022-07-28T10:34:00,75s,28.97
2022-07-28T10:35:00,75s,28.80
2022-07-28T10:36:00,75s,28.84
2022-07-28T10:37:00,75s,28.68
2022-07-28T10:38:00,75s,28.63
2022-07-28T10:39:00,75s,28.62
2022-07-28T10:40:00,75s,28.57
2022-07-28T10:41:00,75s,28.79
2022-07-28T10:42:00,75s,28.44
2022-07-28T10:43:00,75s,28.03
2022-07-28T10:44:00,75s,24.86
2022-07-28T10:45:00,75s,21.99
2022-07-28T10:46:00,75s,25.51
2022-07-28T10:47:00,75s,21.37
2022-07-28T10:48:00,75s,21.17
2022-07-28T10:49:00,75s,21.11
2022-07-28T10:50:00,75s,21.49
2022-07-28T10:51:00,75s,22.96
2022-07-28T10:52:00,75s,28.32
2022-07-28T10:53:00,75s,26.98
2022-07-28T10:54:00,75s,28.46
2022-07-28T10:55:00,75s,28.17
2022-07-28T10:56:00,75s,28.22
2022-07-28T10:57:00,75s,28.19
2022-07-28T10:58:00,75s,28.48
2022-07-28T10:59:00,75s,28.35
2022-07-28T11:00:00,75s,28.42
2022-07-28T11:01:00,75s,29.07
2022-07-28T11:02:00,75s,28.35
2022-07-28T11:03:00,75s,28.44
2022-07-28T11:04:00,75s,28.37
2022-07-28T11:05:00,75s,28.30
2022-07-28T11:06:00,75s,28.45
2022-07-28T11:07:00,75s,28.73
2022-07-28T11:08:00,75s,28.63
2022-07-28T11:09:00,75s,28.67
2022-07-28T11:10:00,75s,28.63
2022-07-28T11:11:00,75s,28.56
2022-07-28T11:12:00,75s,28.54
2022-07-28T11:13:00,75s,28.60
2022-07-28T11:14:00,75s,28.52
2022-07-28T11:15:00,75s,28.72
2022-07-28T11:16:00,75s,28.12
2022-07-28T11:17:00,75s,28.16
2022-07-28T11:18:00,75s,28.11
2022-07-28T11:19:00,75s,28.13
2022-07-28T11:20:00,75s,28.33
2022-07-28T11:21:00,75s,28.77
2022-07-28T11:22:00,75s,28.71
2022-07-28T11:23:00,75s,28.16
2022-07-28T11:24:00,75s,28.26
2022-07-28T11:25:00,75s,28.01
2022-07-28T11:26:00,75s,28.01
2022-07-28T11:27:00,75s,27.76
2022-07-28T11:28:00,75s,27.53
2022-07-28T11:29:00,75s,27.34
2022-07-28T11:30:00,75s,25.13
2022-07-28T11:31:00,75s,23.20
2022-07-28T11:32:00,75s,21.41
2022-07-28T11:33:00,75s,21.36
2022-07-28T11:34:00,75s,21.30
2022-07-28T11:35:00,75s,21.33
2022-07-28T11:36:00,75s,21.35
2022-07-28T11:37:00,75s,21.49
2022-07-28T11:38:00,75s,21.26
2022-07-28T11:39:00,75s,21.19
2022-07-28T11:40:00,75s,21.19
2022-07-28T11:41:00,75s,21.56
2022-07-28T11:42:00,75s,21.08
2022-07-28T11:43:00,75s,21.78
2022-07-28T11:44:00,75s,22.08
2022-07-28T11:45:00,75s,24.05
2022-07-28T11:46:00,75s,25.85
2022-07-28T11:47:00,75s,27.34
2022-07-28T11:48:00,75s,27.54
2022-07-28T11:49:00,75s,27.43
2022-07-28T11:50:00,75s,26.97
2022-07-28T11:51:00,75s,27.16
2022-07-28T11:52:00,75s,27.26
2022-07-28T11:53:00,75s,26.75
2022-07-28T11:54:00,75s,26.57
2022-07-28T11:55:00,75s,26.61
2022-07-28T11:56:00,75s,26.44
2022-07-28T11:57:00,75s,26.52
2022-07-28T11:58:00,75s,26.55
2022-07-28T11:59:00,75s,26.51
2022-07-28T12:00:00,75s,26.23
2022-07-28T12:01:00,75s,26.00
2022-07-28T12:02:00,75s,25.95
2022-07-28T12:03:00,75s,26.11
2022-07-28T12:04:00,75s,25.88
2022-07-28T12:05:00,75s,25.44
2022-07-28T12:06:00,75s,25.22
2022-07-28T12:07:00,75s,23.55
2022-07-28T12:08:00,75s,22.77
2022-07-28T12:09:00,75s,21.26
2022-07-28T12:10:00,75s,21.50
2022-07-28T12:11:00,75s,20.67
2022-07-28T12:12:00,75s,20.70
2022-07-28T12:13:00,75s,20.64
2022-07-28T12:14:00,75s,20.48
2022-07-28T12:15:00,75s,20.62
2022-07-28T12:16:00,75s,20.60
2022-07-28T12:17:00,75s,20.46
2022-07-28T12:18:00,75s,20.72
2022-07-28T12:19:00,75s,20.74
2022-07-28T12:20:00,75s,20.73
2022-07-28T12:21:00,75s,20.80
2022-07-28T12:22:00,75s,20.75
2022-07-28T12:23:00,75s,20.59
2022-07-28T12:24:00,75s,20.48
2022-07-28T12:25:00,75s,20.96
2022-07-28T12:26:00,75s,20.68
2022-07-28T12:27:00,75s,20.68
2022-07-28T12:28:00,75s,20.76
2022-07-28T12:29:00,75s,20.74
2022-07-28T12:30:00,75s,20.94
2022-07-28T12:31:00,75s,20.86
2022-07-28T12:32:00,75s,20.70
2022-07-28T12:33:00,75s,20.58
2022-07-28T12:34:00,75s,20.71
2022-07-28T12:35:00,75s,20.85
2022-07-28T12:36:00,75s,20.87
2022-07-28T12:37:00,75s,21.12
2022-07-28T12:38:00,75s,22.22
2022-07-28T12:39:00,75s,23.79
2022-07-28T12:40:00,75s,26.50
2022-07-28T12:41:00,75s,26.67
2022-07-28T12:42:00,75s,26.71
2022-07-28T12:43:00,75s,26.78
2022-07-28T12:44:00,75s,27.04
2022-07-28T12:45:00,75s,26.80
2022-07-28T12:46:00,75s,27.20
2022-07-28T12:47:00,75s,26.63
2022-07-28T12:48:00,75s,26.71
2022-07-28T12:49:00,75s,26.38
2022-07-28T12:50:00,75s,26.38
2022-07-28T12:51:00,75s,26.61
2022-07-28T12:52:00,75s,26.70
2022-07-28T12:53:00,75s,26.64
2022-07-28T12:54:00,75s,26.64
2022-07-28T12:55:00,75s,26.58
2022-07-28T12:56:00,75s,26.60
2022-07-28T12:57:00,75s,27.39
2022-07-28T12:58:00,75s,27.03
2022-07-28T12:59:00,75s,26.35
2022-07-28T13:00:00,75s,26.41
2022-07-28T13:01:00,75s,26.26
2022-07-28T13:02:00,75s,24.73
2022-07-28T13:03:00,75s,22.87
2022-07-28T13:04:00,75s,21.42
2022-07-28T13:05:00,75s,20.87
2022-07-28T13:06:00,75s,21.56
2022-07-28T13:07:00,75s,21.13
2022-07-28T13:08:00,75s,21.31
2022-07-28T13:09:00,75s,21.16
2022-07-28T13:10:00,75s,21.19
2022-07-28T13:11:00,75s,21.34
2022-07-28T13:12:00,75s,21.20
2022-07-28T13:13:00,75s,21.12
2022-07-28T13:14:00,75s,21.34
2022-07-28T13:15:00,75s,21.29
2022-07-28T13:16:00,75s,21.24
2022-07-28T13:17:00,75s,21.06
2022-07-28T13:18:00,75s,21.23
2022-07-28T13:19:00,75s,21.08
2022-07-28T13:20:00,75s,21.60
2022-07-28T13:21:00,75s,21.35
2022-07-28T13:22:00,75s,21.31
2022-07-28T13:23:00,75s,21.47
2022-07-28T13:24:00,75s,21.48
2022-07-28T13:25:00,75s,21.38
2022-07-28T13:26:00,75s,21.29
2022-07-28T13:27:00,75s,21.31
2022-07-28T13:28:00,75s,21.65
2022-07-28T13:29:00,75s,21.55
2022-07-28T13:30:00,75s,21.35